Über HERMES Pathfinder H1
Group: 3 satellites
Beschreibung wird geladen...
Live-Position
3D-Globus wird geladen...
Nächste Überflüge
Höhenverlauf
Altitude vs Time
uPlot chart will show altitude changes over time
Zweizeiliger Elementsatz
1 63242U 25052AJ 25340.60302669 .00010018 00000-0 47791-3 0 9998
2 63242 97.4109 230.7095 0008860 128.8136 231.3891 15.19241569 40538
Epoch: 6. Dez. 2025 •
Age: 14 hours
Aktueller Status
Höhe 524.3 km
Geschwindigkeit 7.60 km/s
Subsatellitenpunkt -40.94°S,
92.68°W
Startdatum 15. März 2025
Alter 0.7 years
Typ other
Technische Details
Klassifizierung Payload
Masse 5.00 kg
Trockenmasse 5.00 kg
Gesamtmasse 5.00 kg
Länge 0.30 m
Durchmesser 0.10 m
Spannweite 0.30 m
Form Box
Hersteller MILANP/INAFI
Bus-Typ Cubesat 3U
Phasenstatus In Orbit
Besitzer/Staat ASI/I
Große Konstellationen
Loading constellations...